User: anonymous   Login
Location: Unspecified
(40.9447°N, 78.9903°W)
Time: 02:02:47
(UTC-05:00)
Language:

Hubble Space Telescope - Orbit

View from above orbital plane
View from above orbital plane
View from above satellite
View from above satellite

Ground track
Ground track

The orbit data is extracted from the following two-line orbital elements,

1 20580U 90037B   19321.38711875  .00000471  00000-0  17700-4 0  9991
2 20580  28.4699 288.8102 0002495 321.7771 171.5855 15.09299865423838
Epoch (UTC): 17 November 2019 09:17:27
Eccentricity: 0.0002495
inclination: 28.4699°
perigee height: 536 km
apogee height: 540 km
right ascension of ascending node: 288.8102°
argument of perigee: 321.7771°
revolutions per day: 15.09299865
mean anomaly at epoch: 171.5855°
orbit number at epoch: 42383

The dashed part of the orbit path shows where the satellite is in the earth's shadow,  

DLR